Year,Month,Day,Hour,Minute,Value (Times are PST for temperature in C)
2012,06,09,00,00,9.20
2012,06,09,00,01,9.20
2012,06,09,00,02,9.20
2012,06,09,00,03,9.20
2012,06,09,00,04,9.20
2012,06,09,00,05,9.20
2012,06,09,00,06,9.20
2012,06,09,00,07,9.20
2012,06,09,00,08,9.20
2012,06,09,00,09,9.20
2012,06,09,00,10,9.10
2012,06,09,00,11,9.10
2012,06,09,00,12,9.10
2012,06,09,00,13,9.10
2012,06,09,00,14,9.10
2012,06,09,00,15,9.10
2012,06,09,00,16,9.10
2012,06,09,00,17,9.00
2012,06,09,00,18,9.00
2012,06,09,00,19,9.00
2012,06,09,00,20,9.00
2012,06,09,00,21,8.90
2012,06,09,00,22,8.90
2012,06,09,00,23,8.90
2012,06,09,00,24,8.90
2012,06,09,00,25,8.90
2012,06,09,00,26,8.90
2012,06,09,00,27,8.90
2012,06,09,00,28,8.90
2012,06,09,00,29,8.90
2012,06,09,00,30,8.90
2012,06,09,00,31,8.90
2012,06,09,00,32,8.90
2012,06,09,00,33,8.90
2012,06,09,00,34,8.90
2012,06,09,00,35,8.90
2012,06,09,00,36,8.90
2012,06,09,00,37,8.90
2012,06,09,00,38,8.90
2012,06,09,00,39,8.90
2012,06,09,00,40,8.90
2012,06,09,00,41,8.90
2012,06,09,00,42,8.90
2012,06,09,00,43,8.90
2012,06,09,00,44,8.90
2012,06,09,00,45,8.90
2012,06,09,00,46,8.80
2012,06,09,00,47,8.80
2012,06,09,00,48,8.80
2012,06,09,00,49,8.80
2012,06,09,00,50,8.80
2012,06,09,00,51,8.80
2012,06,09,00,52,8.80
2012,06,09,00,53,8.70
2012,06,09,00,54,8.70
2012,06,09,00,55,8.70
2012,06,09,00,56,8.70
2012,06,09,00,57,8.70
2012,06,09,00,58,8.70
2012,06,09,00,59,8.70
2012,06,09,01,00,8.70
2012,06,09,01,01,8.70
2012,06,09,01,02,8.70
2012,06,09,01,03,8.70
2012,06,09,01,04,8.70
2012,06,09,01,05,8.60
2012,06,09,01,06,8.60
2012,06,09,01,07,8.60
2012,06,09,01,08,8.60
2012,06,09,01,09,8.60
2012,06,09,01,10,8.60
2012,06,09,01,11,8.50
2012,06,09,01,12,8.50
2012,06,09,01,13,8.50
2012,06,09,01,14,8.50
2012,06,09,01,15,8.40
2012,06,09,01,16,8.40
2012,06,09,01,17,8.40
2012,06,09,01,18,8.40
2012,06,09,01,19,8.40
2012,06,09,01,20,8.40
2012,06,09,01,21,8.40
2012,06,09,01,22,8.30
2012,06,09,01,23,8.30
2012,06,09,01,24,8.30
2012,06,09,01,25,8.30
2012,06,09,01,26,8.30
2012,06,09,01,27,8.30
2012,06,09,01,28,8.30
2012,06,09,01,29,8.30
2012,06,09,01,30,8.30
2012,06,09,01,31,8.30
2012,06,09,01,32,8.20
2012,06,09,01,33,8.20
2012,06,09,01,34,8.20
2012,06,09,01,35,8.20
2012,06,09,01,36,8.20
2012,06,09,01,37,8.20
2012,06,09,01,38,8.10
2012,06,09,01,39,8.20
2012,06,09,01,40,8.20
2012,06,09,01,41,8.20
2012,06,09,01,42,8.20
2012,06,09,01,43,8.20
2012,06,09,01,44,8.20
2012,06,09,01,45,8.20
2012,06,09,01,46,8.20
2012,06,09,01,47,8.20
2012,06,09,01,48,8.20
2012,06,09,01,49,8.20
2012,06,09,01,50,8.20
2012,06,09,01,51,8.30
2012,06,09,01,52,8.30
2012,06,09,01,53,8.30
2012,06,09,01,54,8.30
2012,06,09,01,55,8.30
2012,06,09,01,56,8.30
2012,06,09,01,57,8.30
2012,06,09,01,58,8.40
2012,06,09,01,59,8.40
2012,06,09,02,00,8.40
2012,06,09,02,01,8.50
2012,06,09,02,02,8.50
2012,06,09,02,03,8.50
2012,06,09,02,04,8.60
2012,06,09,02,05,8.60
2012,06,09,02,06,8.60
2012,06,09,02,07,8.70
2012,06,09,02,08,8.70
2012,06,09,02,09,8.70
2012,06,09,02,10,8.70
2012,06,09,02,11,8.70
2012,06,09,02,12,8.80
2012,06,09,02,13,8.80
2012,06,09,02,14,8.80
2012,06,09,02,15,8.80
2012,06,09,02,16,8.80
2012,06,09,02,17,8.80
2012,06,09,02,18,8.90
2012,06,09,02,19,8.90
2012,06,09,02,20,8.90
2012,06,09,02,21,8.90
2012,06,09,02,22,9.00
2012,06,09,02,23,9.00
2012,06,09,02,24,9.10
2012,06,09,02,25,9.10
2012,06,09,02,26,9.10
2012,06,09,02,27,9.10
2012,06,09,02,28,9.10
2012,06,09,02,29,9.10
2012,06,09,02,30,9.10
2012,06,09,02,31,9.20
2012,06,09,02,32,9.20
2012,06,09,02,33,9.20
2012,06,09,02,34,9.20
2012,06,09,02,35,9.20
2012,06,09,02,36,9.20
2012,06,09,02,37,9.20
2012,06,09,02,38,9.20
2012,06,09,02,39,9.20
2012,06,09,02,40,9.20
2012,06,09,02,41,9.20
2012,06,09,02,42,9.20
2012,06,09,02,43,9.20
2012,06,09,02,44,9.20
2012,06,09,02,45,9.20
2012,06,09,02,46,9.20
2012,06,09,02,47,9.20
2012,06,09,02,48,9.20
2012,06,09,02,49,9.20
2012,06,09,02,50,9.20
2012,06,09,02,51,9.20
2012,06,09,02,52,9.20
2012,06,09,02,53,9.20
2012,06,09,02,54,9.20
2012,06,09,02,55,9.20
2012,06,09,02,56,9.20
2012,06,09,02,57,9.20
2012,06,09,02,58,9.20
2012,06,09,02,59,9.20
2012,06,09,03,00,9.20
2012,06,09,03,01,9.20
2012,06,09,03,02,9.20
2012,06,09,03,03,9.20
2012,06,09,03,04,9.20
2012,06,09,03,05,9.20
2012,06,09,03,06,9.20
2012,06,09,03,07,9.20
2012,06,09,03,08,9.20
2012,06,09,03,09,9.20
2012,06,09,03,10,9.20
2012,06,09,03,11,9.10
2012,06,09,03,12,9.10
2012,06,09,03,13,9.10
2012,06,09,03,14,9.10
2012,06,09,03,15,9.10
2012,06,09,03,16,9.10
2012,06,09,03,17,9.10
2012,06,09,03,18,9.10
2012,06,09,03,19,9.10
2012,06,09,03,20,9.10
2012,06,09,03,21,9.10
2012,06,09,03,22,9.10
2012,06,09,03,23,9.10
2012,06,09,03,24,9.10
2012,06,09,03,25,9.00
2012,06,09,03,26,9.00
2012,06,09,03,27,9.00
2012,06,09,03,28,9.00
2012,06,09,03,29,9.00
2012,06,09,03,30,9.00
2012,06,09,03,31,9.00
2012,06,09,03,32,9.00
2012,06,09,03,33,9.00
2012,06,09,03,34,9.00
2012,06,09,03,35,9.00
2012,06,09,03,36,9.00
2012,06,09,03,37,9.00
2012,06,09,03,38,9.00
2012,06,09,03,39,9.00
2012,06,09,03,40,9.00
2012,06,09,03,41,9.00
2012,06,09,03,42,9.00
2012,06,09,03,43,9.00
2012,06,09,03,44,9.00
2012,06,09,03,45,9.00
2012,06,09,03,46,9.00
2012,06,09,03,47,9.10
2012,06,09,03,48,9.10
2012,06,09,03,49,9.10
2012,06,09,03,50,9.10
2012,06,09,03,51,9.10
2012,06,09,03,52,9.10
2012,06,09,03,53,9.10
2012,06,09,03,54,9.10
2012,06,09,03,55,9.10
2012,06,09,03,56,9.10
2012,06,09,03,57,9.10
2012,06,09,03,58,9.10
2012,06,09,03,59,9.10
2012,06,09,04,00,9.10
2012,06,09,04,01,9.10
2012,06,09,04,02,9.10
2012,06,09,04,03,9.10
2012,06,09,04,04,9.10
2012,06,09,04,05,9.10
2012,06,09,04,06,9.10
2012,06,09,04,07,9.10
2012,06,09,04,08,9.10
2012,06,09,04,09,9.10
2012,06,09,04,10,9.10
2012,06,09,04,11,9.10
2012,06,09,04,12,9.10
2012,06,09,04,13,9.10
2012,06,09,04,14,9.00
2012,06,09,04,15,9.00
2012,06,09,04,16,9.00
2012,06,09,04,17,9.00
2012,06,09,04,18,9.00
2012,06,09,04,19,8.90
2012,06,09,04,20,8.90
2012,06,09,04,21,8.90
2012,06,09,04,22,8.90
2012,06,09,04,23,8.90
2012,06,09,04,24,8.90
2012,06,09,04,25,8.90
2012,06,09,04,26,8.90
2012,06,09,04,27,8.90
2012,06,09,04,28,8.90
2012,06,09,04,29,8.90
2012,06,09,04,30,8.90
2012,06,09,04,31,8.90
2012,06,09,04,32,8.90
2012,06,09,04,33,8.90
2012,06,09,04,34,8.90
2012,06,09,04,35,8.90
2012,06,09,04,36,8.90
2012,06,09,04,37,8.90
2012,06,09,04,38,8.90
2012,06,09,04,39,8.90
2012,06,09,04,40,8.90
2012,06,09,04,41,8.90
2012,06,09,04,42,8.90
2012,06,09,04,43,8.90
2012,06,09,04,44,8.90
2012,06,09,04,45,8.90
2012,06,09,04,46,8.90
2012,06,09,04,47,8.90
2012,06,09,04,48,8.90
2012,06,09,04,49,8.90
2012,06,09,04,50,8.90
2012,06,09,04,51,8.90
2012,06,09,04,52,8.90
2012,06,09,04,53,8.90
2012,06,09,04,54,8.90
2012,06,09,04,55,8.90
2012,06,09,04,56,8.90
2012,06,09,04,57,8.90
2012,06,09,04,58,8.90
2012,06,09,04,59,8.90
2012,06,09,05,00,8.90
2012,06,09,05,01,8.90
2012,06,09,05,02,8.80
2012,06,09,05,03,8.80
2012,06,09,05,04,8.80
2012,06,09,05,05,8.80
2012,06,09,05,06,8.80
2012,06,09,05,07,8.80
2012,06,09,05,08,8.80
2012,06,09,05,09,8.80
2012,06,09,05,10,8.80
2012,06,09,05,11,8.80
2012,06,09,05,12,8.80
2012,06,09,05,13,8.70
2012,06,09,05,14,8.70
2012,06,09,05,15,8.70
2012,06,09,05,16,8.70
2012,06,09,05,17,8.70
2012,06,09,05,18,8.70
2012,06,09,05,19,8.70
2012,06,09,05,20,8.70
2012,06,09,05,21,8.70
2012,06,09,05,22,8.70
2012,06,09,05,23,8.70
2012,06,09,05,24,8.60
2012,06,09,05,25,8.60
2012,06,09,05,26,8.60
2012,06,09,05,27,8.60
2012,06,09,05,28,8.60
2012,06,09,05,29,8.60
2012,06,09,05,30,8.60
2012,06,09,05,31,8.60
2012,06,09,05,32,8.60
2012,06,09,05,33,8.60
2012,06,09,05,34,8.60
2012,06,09,05,35,8.60
2012,06,09,05,36,8.60
2012,06,09,05,37,8.60
2012,06,09,05,38,8.60
2012,06,09,05,39,8.60
2012,06,09,05,40,8.60
2012,06,09,05,41,8.60
2012,06,09,05,42,8.60
2012,06,09,05,43,8.50
2012,06,09,05,44,8.50
2012,06,09,05,45,8.50
2012,06,09,05,46,8.50
2012,06,09,05,47,8.50
2012,06,09,05,48,8.50
2012,06,09,05,49,8.50
2012,06,09,05,50,8.50
2012,06,09,05,51,8.50
2012,06,09,05,52,8.50
2012,06,09,05,53,8.50
2012,06,09,05,54,8.50
2012,06,09,05,55,8.50
2012,06,09,05,56,8.50
2012,06,09,05,57,8.50
2012,06,09,05,58,8.50
2012,06,09,05,59,8.50
2012,06,09,06,00,8.50
2012,06,09,06,01,8.60
2012,06,09,06,02,8.60
2012,06,09,06,03,8.60
2012,06,09,06,04,8.60
2012,06,09,06,05,8.60
2012,06,09,06,06,8.50
2012,06,09,06,07,8.60
2012,06,09,06,08,8.60
2012,06,09,06,09,8.60
2012,06,09,06,10,8.60
2012,06,09,06,11,8.70
2012,06,09,06,12,8.70
2012,06,09,06,13,8.70
2012,06,09,06,14,8.70
2012,06,09,06,15,8.80
2012,06,09,06,16,8.80
2012,06,09,06,17,8.80
2012,06,09,06,18,8.90
2012,06,09,06,19,8.90
2012,06,09,06,20,9.00
2012,06,09,06,21,9.00
2012,06,09,06,22,9.10
2012,06,09,06,23,9.10
2012,06,09,06,24,9.20
2012,06,09,06,25,9.20
2012,06,09,06,26,9.30
2012,06,09,06,27,9.40
2012,06,09,06,28,9.50
2012,06,09,06,29,9.60
2012,06,09,06,30,9.60
2012,06,09,06,31,9.70
2012,06,09,06,32,9.80
2012,06,09,06,33,9.90
2012,06,09,06,34,9.90
2012,06,09,06,35,10.00
2012,06,09,06,36,10.00
2012,06,09,06,37,10.10
2012,06,09,06,38,10.20
2012,06,09,06,39,10.20
2012,06,09,06,40,10.30
2012,06,09,06,41,10.30
2012,06,09,06,42,10.40
2012,06,09,06,43,10.40
2012,06,09,06,44,10.40
2012,06,09,06,45,10.40
2012,06,09,06,46,10.40
2012,06,09,06,47,10.50
2012,06,09,06,48,10.50
2012,06,09,06,49,10.50
2012,06,09,06,50,10.60
2012,06,09,06,51,10.60
2012,06,09,06,52,10.50
2012,06,09,06,53,10.50
2012,06,09,06,54,10.40
2012,06,09,06,55,10.40
2012,06,09,06,56,10.30
2012,06,09,06,57,10.30
2012,06,09,06,58,10.20
2012,06,09,06,59,10.20
2012,06,09,07,00,10.20
2012,06,09,07,01,10.20
2012,06,09,07,02,10.20
2012,06,09,07,03,10.20
2012,06,09,07,04,10.20
2012,06,09,07,05,10.20
2012,06,09,07,06,10.10
2012,06,09,07,07,10.10
2012,06,09,07,08,10.10
2012,06,09,07,09,10.20
2012,06,09,07,10,10.20
2012,06,09,07,11,10.20
2012,06,09,07,12,10.20
2012,06,09,07,13,10.20
2012,06,09,07,14,10.20
2012,06,09,07,15,10.20
2012,06,09,07,16,10.20
2012,06,09,07,17,10.20
2012,06,09,07,18,10.20
2012,06,09,07,19,10.20
2012,06,09,07,20,10.20
2012,06,09,07,21,10.20
2012,06,09,07,22,10.20
2012,06,09,07,23,10.30
2012,06,09,07,24,10.30
2012,06,09,07,25,10.40
2012,06,09,07,26,10.50
2012,06,09,07,27,10.50
2012,06,09,07,28,10.60
2012,06,09,07,29,10.60
2012,06,09,07,30,10.60
2012,06,09,07,31,10.70
2012,06,09,07,32,10.70
2012,06,09,07,33,10.70
2012,06,09,07,34,10.70
2012,06,09,07,35,10.70
2012,06,09,07,36,10.70
2012,06,09,07,37,10.70
2012,06,09,07,38,10.70
2012,06,09,07,39,10.80
2012,06,09,07,40,10.80
2012,06,09,07,41,10.80
2012,06,09,07,42,10.80
2012,06,09,07,43,10.80
2012,06,09,07,44,10.80
2012,06,09,07,45,10.80
2012,06,09,07,46,10.90
2012,06,09,07,47,10.90
2012,06,09,07,48,10.90
2012,06,09,07,49,10.90
2012,06,09,07,50,11.00
2012,06,09,07,51,11.00
2012,06,09,07,52,11.10
2012,06,09,07,53,11.20
2012,06,09,07,54,11.30
2012,06,09,07,55,11.40
2012,06,09,07,56,11.40
2012,06,09,07,57,11.50
2012,06,09,07,58,11.50
2012,06,09,07,59,11.60
2012,06,09,08,00,11.70
2012,06,09,08,01,11.70
2012,06,09,08,02,11.80
2012,06,09,08,03,11.90
2012,06,09,08,04,11.90
2012,06,09,08,05,12.00
2012,06,09,08,06,12.00
2012,06,09,08,07,12.10
2012,06,09,08,08,12.10
2012,06,09,08,09,12.10
2012,06,09,08,10,12.20
2012,06,09,08,11,12.20
2012,06,09,08,12,12.20
2012,06,09,08,13,12.20
2012,06,09,08,14,12.20
2012,06,09,08,15,12.20
2012,06,09,08,16,12.20
2012,06,09,08,17,12.20
2012,06,09,08,18,12.20
2012,06,09,08,19,12.30
2012,06,09,08,20,12.30
2012,06,09,08,21,12.30
2012,06,09,08,22,12.30
2012,06,09,08,23,12.30
2012,06,09,08,24,12.20
2012,06,09,08,25,12.20
2012,06,09,08,26,12.20
2012,06,09,08,27,12.20
2012,06,09,08,28,12.20
2012,06,09,08,29,12.20
2012,06,09,08,30,12.30
2012,06,09,08,31,12.30
2012,06,09,08,32,12.40
2012,06,09,08,33,12.50
2012,06,09,08,34,12.50
2012,06,09,08,35,12.50
2012,06,09,08,36,12.50
2012,06,09,08,37,12.50
2012,06,09,08,38,12.50
2012,06,09,08,39,12.40
2012,06,09,08,40,12.50
2012,06,09,08,41,12.60
2012,06,09,08,42,12.60
2012,06,09,08,43,12.60
2012,06,09,08,44,12.50
2012,06,09,08,45,12.50
2012,06,09,08,46,12.60
2012,06,09,08,47,12.60
2012,06,09,08,48,12.70
2012,06,09,08,49,12.80
2012,06,09,08,50,12.80
2012,06,09,08,51,12.90
2012,06,09,08,52,12.90
2012,06,09,08,53,12.90
2012,06,09,08,54,13.00
2012,06,09,08,55,13.00
2012,06,09,08,56,12.90
2012,06,09,08,57,12.90
2012,06,09,08,58,12.80
2012,06,09,08,59,12.80
2012,06,09,09,00,12.80
2012,06,09,09,01,12.90
2012,06,09,09,02,12.90
2012,06,09,09,03,12.80
2012,06,09,09,04,12.80
2012,06,09,09,05,12.80
2012,06,09,09,06,12.80
2012,06,09,09,07,12.80
2012,06,09,09,08,12.80
2012,06,09,09,09,12.80
2012,06,09,09,10,12.80
2012,06,09,09,11,12.80
2012,06,09,09,12,12.80
2012,06,09,09,13,12.80
2012,06,09,09,14,12.90
2012,06,09,09,15,12.90
2012,06,09,09,16,13.00
2012,06,09,09,17,13.00
2012,06,09,09,18,13.00
2012,06,09,09,19,13.10
2012,06,09,09,20,13.20
2012,06,09,09,21,13.30
2012,06,09,09,22,13.40
2012,06,09,09,23,13.40
2012,06,09,09,24,13.30
2012,06,09,09,25,13.30
2012,06,09,09,26,13.40
2012,06,09,09,27,13.40
2012,06,09,09,28,13.50
2012,06,09,09,29,13.50
2012,06,09,09,30,13.60
2012,06,09,09,31,13.60
2012,06,09,09,32,13.60
2012,06,09,09,33,13.60
2012,06,09,09,34,13.50
2012,06,09,09,35,13.40
2012,06,09,09,36,13.30
2012,06,09,09,37,13.30
2012,06,09,09,38,13.20
2012,06,09,09,39,13.20
2012,06,09,09,40,13.20
2012,06,09,09,41,13.20
2012,06,09,09,42,13.20
2012,06,09,09,43,13.20
2012,06,09,09,44,13.30
2012,06,09,09,45,13.30
2012,06,09,09,46,13.30
2012,06,09,09,47,13.30
2012,06,09,09,48,13.30
2012,06,09,09,49,13.30
2012,06,09,09,50,13.40
2012,06,09,09,51,13.30
2012,06,09,09,52,13.30
2012,06,09,09,53,13.30
2012,06,09,09,54,13.30
2012,06,09,09,55,13.30
2012,06,09,09,56,13.30
2012,06,09,09,57,13.30
2012,06,09,09,58,13.30
2012,06,09,09,59,13.30
2012,06,09,10,00,13.40
2012,06,09,10,01,13.40
2012,06,09,10,02,13.40
2012,06,09,10,03,13.50
2012,06,09,10,04,13.50
2012,06,09,10,05,13.40
2012,06,09,10,06,13.40
2012,06,09,10,07,13.30
2012,06,09,10,08,13.30
2012,06,09,10,09,13.30
2012,06,09,10,10,13.20
2012,06,09,10,11,13.20
2012,06,09,10,12,13.10
2012,06,09,10,13,13.00
2012,06,09,10,14,13.00
2012,06,09,10,15,13.00
2012,06,09,10,16,13.10
2012,06,09,10,17,13.10
2012,06,09,10,18,13.20
2012,06,09,10,19,13.20
2012,06,09,10,20,13.30
2012,06,09,10,21,13.40
2012,06,09,10,22,13.40
2012,06,09,10,23,13.50
2012,06,09,10,24,13.50
2012,06,09,10,25,13.40
2012,06,09,10,26,13.30
2012,06,09,10,27,13.30
2012,06,09,10,28,13.30
2012,06,09,10,29,13.30
2012,06,09,10,30,13.30
2012,06,09,10,31,13.30
2012,06,09,10,32,13.30
2012,06,09,10,33,13.30
2012,06,09,10,34,13.30
2012,06,09,10,35,13.30
2012,06,09,10,36,13.30
2012,06,09,10,37,13.30
2012,06,09,10,38,13.30
2012,06,09,10,39,13.30
2012,06,09,10,40,13.30
2012,06,09,10,41,13.40
2012,06,09,10,42,13.50
2012,06,09,10,43,13.60
2012,06,09,10,44,13.70
2012,06,09,10,45,13.70
2012,06,09,10,46,13.70
2012,06,09,10,47,13.70
2012,06,09,10,48,13.70
2012,06,09,10,49,13.70
2012,06,09,10,50,13.70
2012,06,09,10,51,13.70
2012,06,09,10,52,13.80
2012,06,09,10,53,13.80
2012,06,09,10,54,13.80
2012,06,09,10,55,13.80
2012,06,09,10,56,13.90
2012,06,09,10,57,13.90
2012,06,09,10,58,13.90
2012,06,09,10,59,13.90
2012,06,09,11,00,13.90
2012,06,09,11,01,14.00
2012,06,09,11,02,14.10
2012,06,09,11,03,14.00
2012,06,09,11,04,13.90
2012,06,09,11,05,13.90
2012,06,09,11,06,14.00
2012,06,09,11,07,13.90
2012,06,09,11,08,13.90
2012,06,09,11,09,13.90
2012,06,09,11,10,13.80
2012,06,09,11,11,13.80
2012,06,09,11,12,13.80
2012,06,09,11,13,13.80
2012,06,09,11,14,13.90
2012,06,09,11,15,14.00
2012,06,09,11,16,14.00
2012,06,09,11,17,14.10
2012,06,09,11,18,14.20
2012,06,09,11,19,14.20
2012,06,09,11,20,14.10
2012,06,09,11,21,14.00
2012,06,09,11,22,13.90
2012,06,09,11,23,13.80
2012,06,09,11,24,13.80
2012,06,09,11,25,13.80
2012,06,09,11,26,13.80
2012,06,09,11,27,13.90
2012,06,09,11,28,13.90
2012,06,09,11,29,14.00
2012,06,09,11,30,14.00
2012,06,09,11,31,14.00
2012,06,09,11,32,13.90
2012,06,09,11,33,13.90
2012,06,09,11,34,13.90
2012,06,09,11,35,13.90
2012,06,09,11,36,14.00
2012,06,09,11,37,14.00
2012,06,09,11,38,14.00
2012,06,09,11,39,14.10
2012,06,09,11,40,14.10
2012,06,09,11,41,14.10
2012,06,09,11,42,14.20
2012,06,09,11,43,14.20
2012,06,09,11,44,14.20
2012,06,09,11,45,14.20
2012,06,09,11,46,14.20
2012,06,09,11,47,14.10
2012,06,09,11,48,14.00
2012,06,09,11,49,13.90
2012,06,09,11,50,13.90
2012,06,09,11,51,13.90
2012,06,09,11,52,13.90
2012,06,09,11,53,14.00
2012,06,09,11,54,14.10
2012,06,09,11,55,14.10
2012,06,09,11,56,14.00
2012,06,09,11,57,13.90
2012,06,09,11,58,13.80
2012,06,09,11,59,13.80
2012,06,09,12,00,13.80
2012,06,09,12,01,13.70
2012,06,09,12,02,13.70
2012,06,09,12,03,13.70
2012,06,09,12,04,13.80
2012,06,09,12,05,13.80
2012,06,09,12,06,13.90
2012,06,09,12,07,14.00
2012,06,09,12,08,14.10
2012,06,09,12,09,14.10
2012,06,09,12,10,14.10
2012,06,09,12,11,14.10
2012,06,09,12,12,14.10
2012,06,09,12,13,14.10
2012,06,09,12,14,14.00
2012,06,09,12,15,14.00
2012,06,09,12,16,13.90
2012,06,09,12,17,14.00
2012,06,09,12,18,14.00
2012,06,09,12,19,14.10
2012,06,09,12,20,14.00
2012,06,09,12,21,14.00
2012,06,09,12,22,14.10
2012,06,09,12,23,14.10
2012,06,09,12,24,14.00
2012,06,09,12,25,13.90
2012,06,09,12,26,13.80
2012,06,09,12,27,13.80
2012,06,09,12,28,13.70
2012,06,09,12,29,13.80
2012,06,09,12,30,13.80
2012,06,09,12,31,13.80
2012,06,09,12,32,13.90
2012,06,09,12,33,13.90
2012,06,09,12,34,13.90
2012,06,09,12,35,14.00
2012,06,09,12,36,14.00
2012,06,09,12,37,13.90
2012,06,09,12,38,13.80
2012,06,09,12,39,13.70
2012,06,09,12,40,13.70
2012,06,09,12,41,13.80
2012,06,09,12,42,13.80
2012,06,09,12,43,13.80
2012,06,09,12,44,13.80
2012,06,09,12,45,13.80
2012,06,09,12,46,13.80
2012,06,09,12,47,13.90
2012,06,09,12,48,13.90
2012,06,09,12,49,14.00
2012,06,09,12,50,14.10
2012,06,09,12,51,14.10
2012,06,09,12,52,14.10
2012,06,09,12,53,14.10
2012,06,09,12,54,14.00
2012,06,09,12,55,14.00
2012,06,09,12,56,13.90
2012,06,09,12,57,13.90
2012,06,09,12,58,14.00
2012,06,09,12,59,14.00
2012,06,09,13,00,13.90
2012,06,09,13,01,13.90
2012,06,09,13,02,13.80
2012,06,09,13,03,13.90
2012,06,09,13,04,13.80
2012,06,09,13,05,13.80
2012,06,09,13,06,13.80
2012,06,09,13,07,13.80
2012,06,09,13,08,13.80
2012,06,09,13,09,13.90
2012,06,09,13,10,13.90
2012,06,09,13,11,13.90
2012,06,09,13,12,13.90
2012,06,09,13,13,13.90
2012,06,09,13,14,14.00
2012,06,09,13,15,14.10
2012,06,09,13,16,14.10
2012,06,09,13,17,14.10
2012,06,09,13,18,14.10
2012,06,09,13,19,14.10
2012,06,09,13,20,14.20
2012,06,09,13,21,14.20
2012,06,09,13,22,14.20
2012,06,09,13,23,14.30
2012,06,09,13,24,14.40
2012,06,09,13,25,14.50
2012,06,09,13,26,14.60
2012,06,09,13,27,14.70
2012,06,09,13,28,14.80
2012,06,09,13,29,14.90
2012,06,09,13,30,15.00
2012,06,09,13,31,15.10
2012,06,09,13,32,15.00
2012,06,09,13,33,15.00
2012,06,09,13,34,15.00
2012,06,09,13,35,14.90
2012,06,09,13,36,14.80
2012,06,09,13,37,14.70
2012,06,09,13,38,14.50
2012,06,09,13,39,14.40
2012,06,09,13,40,14.30
2012,06,09,13,41,14.20
2012,06,09,13,42,14.10
2012,06,09,13,43,14.00
2012,06,09,13,44,13.90
2012,06,09,13,45,13.80
2012,06,09,13,46,13.80
2012,06,09,13,47,13.80
2012,06,09,13,48,13.80
2012,06,09,13,49,13.70
2012,06,09,13,50,13.70
2012,06,09,13,51,13.70
2012,06,09,13,52,13.70
2012,06,09,13,53,13.70
2012,06,09,13,54,13.70
2012,06,09,13,55,13.70
2012,06,09,13,56,13.60
2012,06,09,13,57,13.60
2012,06,09,13,58,13.50
2012,06,09,13,59,13.40
2012,06,09,14,00,13.40
2012,06,09,14,01,13.30
2012,06,09,14,02,13.20
2012,06,09,14,03,13.20
2012,06,09,14,04,13.20
2012,06,09,14,05,13.20
2012,06,09,14,06,13.20
2012,06,09,14,07,13.30
2012,06,09,14,08,13.20
2012,06,09,14,09,13.20
2012,06,09,14,10,13.20
2012,06,09,14,11,13.20
2012,06,09,14,12,13.20
2012,06,09,14,13,13.20
2012,06,09,14,14,13.20
2012,06,09,14,15,13.30
2012,06,09,14,16,13.30
2012,06,09,14,17,13.30
2012,06,09,14,18,13.40
2012,06,09,14,19,13.50
2012,06,09,14,20,13.50
2012,06,09,14,21,13.60
2012,06,09,14,22,13.70
2012,06,09,14,23,13.80
2012,06,09,14,24,14.00
2012,06,09,14,25,14.10
2012,06,09,14,26,14.20
2012,06,09,14,27,14.20
2012,06,09,14,28,14.30
2012,06,09,14,29,14.40
2012,06,09,14,30,14.50
2012,06,09,14,31,14.50
2012,06,09,14,32,14.50
2012,06,09,14,33,14.40
2012,06,09,14,34,14.40
2012,06,09,14,35,14.30
2012,06,09,14,36,14.20
2012,06,09,14,37,14.10
2012,06,09,14,38,14.10
2012,06,09,14,39,14.00
2012,06,09,14,40,13.90
2012,06,09,14,41,13.90
2012,06,09,14,42,13.90
2012,06,09,14,43,13.90
2012,06,09,14,44,13.90
2012,06,09,14,45,13.90
2012,06,09,14,46,14.00
2012,06,09,14,47,14.00
2012,06,09,14,48,14.00
2012,06,09,14,49,13.90
2012,06,09,14,50,13.90
2012,06,09,14,51,13.90
2012,06,09,14,52,13.90
2012,06,09,14,53,13.90
2012,06,09,14,54,13.90
2012,06,09,14,55,13.80
2012,06,09,14,56,13.80
2012,06,09,14,57,13.70
2012,06,09,14,58,13.70
2012,06,09,14,59,13.60
2012,06,09,15,00,13.60
2012,06,09,15,01,13.60
2012,06,09,15,02,13.70
2012,06,09,15,03,13.80
2012,06,09,15,04,13.80
2012,06,09,15,05,13.90
2012,06,09,15,06,13.90
2012,06,09,15,07,14.00
2012,06,09,15,08,14.00
2012,06,09,15,09,14.00
2012,06,09,15,10,14.10
2012,06,09,15,11,14.10
2012,06,09,15,12,14.10
2012,06,09,15,13,14.20
2012,06,09,15,14,14.20
2012,06,09,15,15,14.20
2012,06,09,15,16,14.30
2012,06,09,15,17,14.30
2012,06,09,15,18,14.30
2012,06,09,15,19,14.30
2012,06,09,15,20,14.20
2012,06,09,15,21,14.20
2012,06,09,15,22,14.20
2012,06,09,15,23,14.20
2012,06,09,15,24,14.20
2012,06,09,15,25,14.20
2012,06,09,15,26,14.30
2012,06,09,15,27,14.30
2012,06,09,15,28,14.30
2012,06,09,15,29,14.40
2012,06,09,15,30,14.40
2012,06,09,15,31,14.50
2012,06,09,15,32,14.60
2012,06,09,15,33,14.60
2012,06,09,15,34,14.60
2012,06,09,15,35,14.70
2012,06,09,15,36,14.70
2012,06,09,15,37,14.60
2012,06,09,15,38,14.70
2012,06,09,15,39,14.70
2012,06,09,15,40,14.70
2012,06,09,15,41,14.70
2012,06,09,15,42,14.80
2012,06,09,15,43,14.90
2012,06,09,15,44,14.90
2012,06,09,15,45,15.00
2012,06,09,15,46,15.20
2012,06,09,15,47,15.20
2012,06,09,15,48,15.20
2012,06,09,15,49,15.30
2012,06,09,15,50,15.30
2012,06,09,15,51,15.40
2012,06,09,15,52,15.50
2012,06,09,15,53,15.60
2012,06,09,15,54,15.70
2012,06,09,15,55,15.80
2012,06,09,15,56,16.00
2012,06,09,15,57,16.10
2012,06,09,15,58,16.20
2012,06,09,15,59,16.10
2012,06,09,16,00,16.00
2012,06,09,16,01,15.90
2012,06,09,16,02,15.80
2012,06,09,16,03,15.70
2012,06,09,16,04,15.70
2012,06,09,16,05,15.80
2012,06,09,16,06,16.00
2012,06,09,16,07,16.10
2012,06,09,16,08,16.30
2012,06,09,16,09,16.40
2012,06,09,16,10,16.50
2012,06,09,16,11,16.50
2012,06,09,16,12,16.50
2012,06,09,16,13,16.60
2012,06,09,16,14,16.60
2012,06,09,16,15,16.70
2012,06,09,16,16,16.80
2012,06,09,16,17,16.80
2012,06,09,16,18,16.80
2012,06,09,16,19,16.90
2012,06,09,16,20,16.80
2012,06,09,16,21,16.80
2012,06,09,16,22,16.70
2012,06,09,16,23,16.80
2012,06,09,16,24,16.80
2012,06,09,16,25,16.80
2012,06,09,16,26,16.80
2012,06,09,16,27,16.80
2012,06,09,16,28,16.80
2012,06,09,16,29,16.80
2012,06,09,16,30,16.80
2012,06,09,16,31,16.70
2012,06,09,16,32,16.60
2012,06,09,16,33,16.50
2012,06,09,16,34,16.50
2012,06,09,16,35,16.40
2012,06,09,16,36,16.40
2012,06,09,16,37,16.40
2012,06,09,16,38,16.20
2012,06,09,16,39,16.10
2012,06,09,16,40,16.10
2012,06,09,16,41,16.10
2012,06,09,16,42,16.10
2012,06,09,16,43,16.10
2012,06,09,16,44,16.10
2012,06,09,16,45,16.10
2012,06,09,16,46,16.00
2012,06,09,16,47,15.90
2012,06,09,16,48,15.80
2012,06,09,16,49,15.70
2012,06,09,16,50,15.60
2012,06,09,16,51,15.60
2012,06,09,16,52,15.50
2012,06,09,16,53,15.50
2012,06,09,16,54,15.50
2012,06,09,16,55,15.40
2012,06,09,16,56,15.40
2012,06,09,16,57,15.40
2012,06,09,16,58,15.40
2012,06,09,16,59,15.40
2012,06,09,17,00,15.30
2012,06,09,17,01,15.20
2012,06,09,17,02,15.10
2012,06,09,17,03,15.10
2012,06,09,17,04,15.00
2012,06,09,17,05,14.90
2012,06,09,17,06,14.90
2012,06,09,17,07,14.80
2012,06,09,17,08,14.80
2012,06,09,17,09,14.70
2012,06,09,17,10,14.80
2012,06,09,17,11,14.80
2012,06,09,17,12,14.90
2012,06,09,17,13,15.00
2012,06,09,17,14,15.00
2012,06,09,17,15,15.10
2012,06,09,17,16,15.20
2012,06,09,17,17,15.20
2012,06,09,17,18,15.30
2012,06,09,17,19,15.30
2012,06,09,17,20,15.30
2012,06,09,17,21,15.30
2012,06,09,17,22,15.30
2012,06,09,17,23,15.30
2012,06,09,17,24,15.40
2012,06,09,17,25,15.50
2012,06,09,17,26,15.60
2012,06,09,17,27,15.70
2012,06,09,17,28,15.70
2012,06,09,17,29,15.70
2012,06,09,17,30,15.70
2012,06,09,17,31,15.70
2012,06,09,17,32,15.70
2012,06,09,17,33,15.70
2012,06,09,17,34,15.70
2012,06,09,17,35,15.70
2012,06,09,17,36,15.80